| time (UTC) | temp C | wind direction | speed KPH | gust KPH | rain 1hr cm | rain 24hr cm | rain mn cm | humidity % | barometer mb |
| 20260508050052 | 8 | 94 | 0.0 | 0.0 | 0.00 | 0.00 | 0.00 | 56 | 1019.7 |
| 20260508045513 | 8 | 94 | 0.0 | 0.0 | 0.00 | 0.00 | 0.00 | 56 | 1019.8 |
| 20260508045013 | 8 | 94 | 0.0 | 4.8 | 0.00 | 0.00 | 0.00 | 54 | 1019.9 |
| 20260508044550 | 8 | 94 | 0.0 | 4.8 | 0.00 | 0.00 | 0.00 | 55 | 1019.9 |
| 20260508044016 | 9 | 94 | 0.0 | 4.8 | 0.00 | 0.00 | 0.00 | 55 | 1020.0 |
| 20260508043515 | 9 | 94 | 0.0 | 4.8 | 0.00 | 0.00 | 0.00 | 52 | 1019.9 |
| 20260508043056 | 10 | 94 | 0.0 | 6.4 | 0.00 | 0.00 | 0.00 | 52 | 1019.8 |
| 20260508042513 | 10 | 94 | 0.0 | 6.4 | 0.00 | 0.00 | 0.00 | 54 | 1019.8 |
| 20260508042019 | 10 | 100 | 1.6 | 9.7 | 0.00 | 0.00 | 0.00 | 51 | 1019.8 |
| 20260508041556 | 10 | 60 | 3.2 | 9.7 | 0.00 | 0.00 | 0.00 | 51 | 1019.8 |
| 20260508041013 | 10 | 71 | 1.6 | 8.0 | 0.00 | 0.00 | 0.00 | 51 | 1019.8 |
| 20260508040517 | 10 | 5 | 1.6 | 6.4 | 0.00 | 0.00 | 0.00 | 50 | 1020.4 |
| 20260508040048 | 10 | 13 | 0.0 | 9.7 | 0.00 | 0.00 | 0.00 | 52 | 1020.5 |
| 20260508035515 | 10 | 37 | 1.6 | 9.7 | 0.00 | 0.00 | 0.00 | 48 | 1020.3 |
| 20260508035014 | 9 | 351 | 0.0 | 4.8 | 0.00 | 0.00 | 0.00 | 48 | 1020.2 |
| 20260508034546 | 9 | 351 | 0.0 | 4.8 | 0.00 | 0.00 | 0.00 | 48 | 1020.2 |
| 20260508034012 | 9 | 355 | 0.0 | 4.8 | 0.00 | 0.00 | 0.00 | 49 | 1020.1 |
| 20260508033512 | 8 | 10 | 0.0 | 1.6 | 0.00 | 0.00 | 0.00 | 52 | 1020.1 |
| 20260508033044 | 8 | 10 | 0.0 | 3.2 | 0.00 | 0.00 | 0.00 | 51 | 1019.9 |
| 20260508032515 | 8 | 10 | 0.0 | 3.2 | 0.00 | 0.00 | 0.00 | 52 | 1019.8 |
| 20260508032016 | 8 | 5 | 0.0 | 0.0 | 0.00 | 0.00 | 0.00 | 53 | 1019.8 |
| 20260508031544 | 8 | 5 | 0.0 | 0.0 | 0.00 | 0.00 | 0.00 | 49 | 1019.7 |
| 20260508031013 | 8 | 5 | 0.0 | 0.0 | 0.00 | 0.00 | 0.00 | 51 | 1019.6 |
| 20260508030514 | 8 | 5 | 0.0 | 0.0 | 0.00 | 0.00 | 0.00 | 51 | 1019.5 |
| 20260508030051 | 8 | 5 | 0.0 | 0.0 | 0.00 | 0.00 | 0.00 | 52 | 1019.4 |
| 20260508025515 | 9 | 5 | 0.0 | 0.0 | 0.00 | 0.00 | 0.00 | 51 | 1019.2 |
| 20260508025013 | 9 | 5 | 0.0 | 0.0 | 0.00 | 0.00 | 0.00 | 52 | 1019.1 |
| 20260508024550 | 9 | 5 | 0.0 | 0.0 | 0.00 | 0.00 | 0.00 | 49 | 1019.0 |
| 20260508024013 | 10 | 5 | 0.0 | 0.0 | 0.00 | 0.00 | 0.00 | 50 | 1019.0 |
| 20260508023517 | 10 | 5 | 0.0 | 0.0 | 0.00 | 0.00 | 0.00 | 50 | 1018.8 |
| 20260508023047 | 10 | 5 | 0.0 | 0.0 | 0.00 | 0.00 | 0.00 | 47 | 1018.9 |
| 20260508022513 | 10 | 5 | 0.0 | 0.0 | 0.00 | 0.00 | 0.00 | 46 | 1018.9 |
| 20260508022016 | 10 | 5 | 0.0 | 0.0 | 0.00 | 0.00 | 0.00 | 44 | 1018.9 |
| 20260508021556 | 10 | 5 | 0.0 | 0.0 | 0.00 | 0.00 | 0.00 | 45 | 1018.9 |
| 20260508021019 | 11 | 5 | 0.0 | 0.0 | 0.00 | 0.00 | 0.00 | 44 | 1018.9 |
| 20260508020516 | 11 | 5 | 0.0 | 0.0 | 0.00 | 0.00 | 0.00 | 44 | 1018.9 |
| 20260508020053 | 11 | 5 | 0.0 | 0.0 | 0.00 | 0.00 | 0.00 | 44 | 1018.8 |
| 20260508015514 | 11 | 5 | 0.0 | 0.0 | 0.00 | 0.00 | 0.00 | 42 | 1018.8 |
| 20260508015017 | 12 | 5 | 0.0 | 0.0 | 0.00 | 0.00 | 0.00 | 40 | 1018.8 |
| 20260508014556 | 12 | 5 | 0.0 | 0.0 | 0.00 | 0.00 | 0.00 | 40 | 1018.6 |
| 20260508014013 | 12 | 5 | 0.0 | 1.6 | 0.00 | 0.00 | 0.00 | 38 | 1018.5 |
| 20260508013512 | 13 | 5 | 0.0 | 1.6 | 0.00 | 0.00 | 0.00 | 37 | 1018.6 |
| 20260508013057 | 13 | 285 | 0.0 | 1.6 | 0.00 | 0.00 | 0.00 | 36 | 1018.4 |
| 20260508012519 | 13 | 285 | 0.0 | 4.8 | 0.00 | 0.00 | 0.00 | 35 | 1018.4 |
| 20260508012014 | 14 | 285 | 0.0 | 6.4 | 0.00 | 0.00 | 0.00 | 35 | 1018.5 |
| 20260508011603 | 14 | 285 | 0.0 | 4.8 | 0.00 | 0.00 | 0.00 | 35 | 1018.6 |
| 20260508011015 | 14 | 285 | 0.0 | 1.6 | 0.00 | 0.00 | 0.00 | 34 | 1018.3 |
| 20260508010516 | 14 | 285 | 0.0 | 4.8 | 0.00 | 0.00 | 0.00 | 32 | 1018.4 |
| 20260508010056 | 15 | 285 | 0.0 | 6.4 | 0.00 | 0.00 | 0.00 | 30 | 1018.4 |
| 20260508005516 | 15 | 285 | 0.0 | 16.1 | 0.00 | 0.03 | 0.00 | 30 | 1018.4 |
| 20260508005013 | 15 | 275 | 3.2 | 16.1 | 0.00 | 0.03 | 0.00 | 29 | 1018.5 |
| 20260508004550 | 16 | 327 | 3.2 | 19.3 | 0.00 | 0.03 | 0.00 | 29 | 1018.5 |
| 20260508004017 | 16 | 303 | 4.8 | 19.3 | 0.00 | 0.03 | 0.00 | 28 | 1018.5 |
| 20260508003516 | 16 | 340 | 3.2 | 12.9 | 0.00 | 0.03 | 0.00 | 29 | 1018.4 |
| 20260508003053 | 16 | 271 | 4.8 | 14.5 | 0.00 | 0.03 | 0.00 | 30 | 1018.4 |
| 20260508002514 | 16 | 311 | 6.4 | 14.5 | 0.00 | 0.03 | 0.00 | 29 | 1018.4 |
| 20260508002014 | 16 | 269 | 4.8 | 19.3 | 0.00 | 0.03 | 0.00 | 30 | 1018.4 |
| 20260508001613 | 15 | 332 | 4.8 | 19.3 | 0.00 | 0.03 | 0.00 | 30 | 1018.3 |
| 20260508001017 | 15 | 311 | 4.8 | 16.1 | 0.00 | 0.03 | 0.00 | 31 | 1018.3 |
| 20260508000518 | 15 | 305 | 3.2 | 16.1 | 0.00 | 0.03 | 0.00 | 29 | 1018.3 |
| 20260507235513 | 15 | 246 | 1.6 | 14.5 | 0.00 | 0.03 | 0.00 | 31 | 1018.4 |
| 20260507235017 | 15 | 297 | 6.4 | 14.5 | 0.00 | 0.03 | 0.00 | 29 | 1018.4 |
| 20260507234556 | 15 | 315 | 4.8 | 14.5 | 0.00 | 0.03 | 0.00 | 31 | 1018.4 |
| 20260507234052 | 15 | 304 | 1.6 | 16.1 | 0.00 | 0.03 | 0.00 | 32 | 1018.5 |
| 20260507233514 | 15 | 339 | 6.4 | 16.1 | 0.00 | 0.03 | 0.00 | 31 | 1018.6 |
| 20260507233056 | 16 | 335 | 3.2 | 12.9 | 0.00 | 0.03 | 0.00 | 31 | 1018.5 |
| 20260507232518 | 16 | 319 | 4.8 | 12.9 | 0.00 | 0.03 | 0.00 | 29 | 1018.6 |
| 20260507232016 | 16 | 20 | 4.8 | 12.9 | 0.00 | 0.03 | 0.00 | 29 | 1018.6 |
| 20260507231557 | 16 | 333 | 3.2 | 12.9 | 0.00 | 0.03 | 0.00 | 31 | 1018.3 |
| 20260507231015 | 16 | 360 | 3.2 | 19.3 | 0.00 | 0.03 | 0.00 | 29 | 1018.3 |
| 20260507230518 | 17 | 324 | 6.4 | 19.3 | 0.00 | 0.03 | 0.00 | 28 | 1018.4 |
| 20260507230056 | 17 | 333 | 4.8 | 19.3 | 0.00 | 0.03 | 0.00 | 28 | 1018.4 |
| 20260507225515 | 16 | 19 | 4.8 | 27.4 | 0.00 | 0.03 | 0.00 | 29 | 1018.4 |
| 20260507225013 | 16 | 42 | 6.4 | 27.4 | 0.00 | 0.03 | 0.00 | 28 | 1018.4 |
| 20260507224557 | 16 | 20 | 9.7 | 27.4 | 0.00 | 0.03 | 0.00 | 27 | 1018.5 |
| 20260507224017 | 17 | 347 | 11.3 | 27.4 | 0.00 | 0.03 | 0.00 | 26 | 1018.5 |
| 20260507223519 | 16 | 304 | 4.8 | 9.7 | 0.00 | 0.03 | 0.00 | 30 | 1018.3 |
| 20260507223055 | 16 | 26 | 0.0 | 19.3 | 0.00 | 0.03 | 0.00 | 30 | 1018.4 |
| 20260507222512 | 16 | 9 | 6.4 | 19.3 | 0.00 | 0.03 | 0.00 | 31 | 1018.4 |
| 20260507222016 | 16 | 264 | 4.8 | 20.9 | 0.00 | 0.03 | 0.00 | 30 | 1018.4 |
| 20260507221555 | 16 | 305 | 6.4 | 20.9 | 0.00 | 0.03 | 0.00 | 29 | 1018.3 |
| 20260507221016 | 16 | 291 | 3.2 | 14.5 | 0.00 | 0.03 | 0.00 | 31 | 1018.6 |
| 20260507220518 | 15 | 323 | 6.4 | 24.1 | 0.00 | 0.03 | 0.00 | 32 | 1018.9 |
| 20260507220109 | 15 | 251 | 4.8 | 24.1 | 0.00 | 0.03 | 0.00 | 30 | 1018.8 |
| 20260507215519 | 15 | 355 | 4.8 | 20.9 | 0.00 | 0.05 | 0.00 | 33 | 1018.6 |
| 20260507215017 | 15 | 304 | 6.4 | 20.9 | 0.00 | 0.05 | 0.00 | 32 | 1018.9 |
| 20260507214604 | 16 | 254 | 8.0 | 17.7 | 0.00 | 0.05 | 0.00 | 28 | 1018.7 |
| 20260507214016 | 16 | 317 | 4.8 | 12.9 | 0.00 | 0.05 | 0.00 | 34 | 1018.9 |
| 20260507213518 | 16 | 35 | 4.8 | 14.5 | 0.00 | 0.05 | 0.00 | 34 | 1019.1 |
| 20260507213054 | 16 | 32 | 4.8 | 17.7 | 0.00 | 0.05 | 0.00 | 37 | 1019.1 |
| 20260507212517 | 16 | 250 | 3.2 | 22.5 | 0.00 | 0.05 | 0.00 | 33 | 1019.0 |
| 20260507212014 | 16 | 5 | 4.8 | 22.5 | 0.00 | 0.05 | 0.00 | 31 | 1019.3 |
| 20260507211551 | 16 | 321 | 4.8 | 19.3 | 0.00 | 0.05 | 0.00 | 31 | 1019.4 |
| 20260507211016 | 16 | 261 | 8.0 | 19.3 | 0.00 | 0.05 | 0.00 | 33 | 1019.4 |
| 20260507210517 | 16 | 304 | 6.4 | 12.9 | 0.00 | 0.05 | 0.00 | 33 | 1019.6 |
| 20260507210115 | 16 | 48 | 4.8 | 22.5 | 0.00 | 0.05 | 0.00 | 32 | 1019.5 |
| 20260507205518 | 16 | 286 | 6.4 | 14.5 | 0.00 | 0.10 | 0.00 | 33 | 1019.6 |
| 20260507205015 | 16 | 276 | 4.8 | 14.5 | 0.00 | 0.10 | 0.00 | 33 | 1019.8 |
| 20260507204600 | 16 | 294 | 8.0 | 19.3 | 0.00 | 0.10 | 0.00 | 30 | 1019.8 |
| 20260507204020 | 16 | 252 | 6.4 | 19.3 | 0.00 | 0.10 | 0.00 | 35 | 1019.7 |
| 20260507203517 | 16 | 109 | 4.8 | 16.1 | 0.00 | 0.10 | 0.00 | 31 | 1019.9 |
| 20260507203054 | 16 | 271 | 6.4 | 16.1 | 0.00 | 0.10 | 0.00 | 32 | 1019.9 |
| 20260507202520 | 16 | 200 | 3.2 | 25.7 | 0.00 | 0.10 | 0.00 | 36 | 1019.8 |
| 20260507202016 | 16 | 240 | 9.7 | 19.3 | 0.00 | 0.10 | 0.00 | 33 | 1020.0 |
| 20260507201011 | 16 | 326 | 6.4 | 20.9 | 0.00 | 0.10 | 0.00 | 32 | 1020.2 |
| 20260507200511 | 16 | 278 | 6.4 | 17.7 | 0.00 | 0.10 | 0.00 | 33 | 1020.1 |
| 20260507200032 | 16 | 338 | 4.8 | 14.5 | 0.00 | 0.10 | 0.00 | 38 | 1020.1 |
| 20260507195513 | 15 | 332 | 4.8 | 29.0 | 0.00 | 0.20 | 0.00 | 36 | 1020.1 |
| 20260507195011 | 15 | 301 | 8.0 | 29.0 | 0.00 | 0.20 | 0.00 | 36 | 1020.4 |
| 20260507194528 | 15 | 269 | 8.0 | 22.5 | 0.00 | 0.20 | 0.00 | 34 | 1020.4 |
| 20260507194010 | 15 | 257 | 6.4 | 20.9 | 0.00 | 0.20 | 0.00 | 36 | 1020.3 |
| 20260507193510 | 15 | 207 | 6.4 | 14.5 | 0.00 | 0.20 | 0.00 | 36 | 1020.3 |
| 20260507193032 | 15 | 360 | 4.8 | 16.1 | 0.00 | 0.20 | 0.00 | 35 | 1020.6 |
| 20260507192513 | 15 | 275 | 6.4 | 19.3 | 0.00 | 0.20 | 0.00 | 38 | 1020.7 |
| 20260507192012 | 14 | 24 | 8.0 | 19.3 | 0.00 | 0.20 | 0.00 | 39 | 1020.7 |
| 20260507191530 | 14 | 227 | 6.4 | 16.1 | 0.00 | 0.20 | 0.00 | 35 | 1020.8 |
| 20260507191013 | 14 | 268 | 6.4 | 17.7 | 0.00 | 0.20 | 0.00 | 34 | 1020.9 |
| 20260507190510 | 14 | 302 | 6.4 | 17.7 | 0.00 | 0.20 | 0.00 | 36 | 1020.8 |
| 20260507190035 | 14 | 229 | 3.2 | 20.9 | 0.00 | 0.20 | 0.00 | 34 | 1020.8 |
| 20260507185516 | 14 | 309 | 6.4 | 20.9 | 0.00 | 0.36 | 0.00 | 34 | 1020.8 |
| 20260507185012 | 14 | 327 | 4.8 | 17.7 | 0.00 | 0.36 | 0.00 | 34 | 1020.8 |
| 20260507184534 | 14 | 331 | 4.8 | 17.7 | 0.00 | 0.36 | 0.00 | 30 | 1020.7 |
| 20260507184017 | 15 | 282 | 4.8 | 16.1 | 0.00 | 0.36 | 0.00 | 32 | 1020.8 |
| 20260507183512 | 15 | 319 | 3.2 | 14.5 | 0.00 | 0.36 | 0.00 | 30 | 1020.8 |
| 20260507183028 | 15 | 281 | 3.2 | 6.4 | 0.00 | 0.36 | 0.00 | 35 | 1020.7 |
| 20260507182513 | 13 | 272 | 1.6 | 8.0 | 0.00 | 0.36 | 0.00 | 38 | 1021.0 |
| 20260507182013 | 13 | 284 | 3.2 | 8.0 | 0.00 | 0.36 | 0.00 | 33 | 1021.0 |
| 20260507181532 | 13 | 326 | 1.6 | 9.7 | 0.00 | 0.36 | 0.00 | 36 | 1021.1 |
| 20260507181013 | 13 | 290 | 1.6 | 6.4 | 0.00 | 0.36 | 0.00 | 33 | 1021.0 |
| 20260507180513 | 13 | 243 | 0.0 | 9.7 | 0.00 | 0.36 | 0.00 | 35 | 1020.9 |
| 20260507180031 | 13 | 233 | 1.6 | 11.3 | 0.00 | 0.36 | 0.00 | 33 | 1020.9 |
| 20260507175512 | 13 | 302 | 3.2 | 8.0 | 0.00 | 0.56 | 0.00 | 31 | 1020.8 |
| 20260507175016 | 13 | 34 | 1.6 | 8.0 | 0.00 | 0.56 | 0.00 | 32 | 1021.0 |
| 20260507174540 | 13 | 41 | 1.6 | 8.0 | 0.00 | 0.56 | 0.00 | 32 | 1021.0 |
| 20260507174014 | 13 | 86 | 3.2 | 9.7 | 0.00 | 0.56 | 0.00 | 29 | 1021.0 |
| 20260507173514 | 13 | 309 | 4.8 | 12.9 | 0.00 | 0.56 | 0.00 | 35 | 1021.3 |
| 20260507173035 | 13 | 215 | 4.8 | 17.7 | 0.00 | 0.56 | 0.00 | 36 | 1021.3 |
| 20260507172512 | 13 | 228 | 4.8 | 17.7 | 0.00 | 0.56 | 0.00 | 36 | 1021.5 |
| 20260507172012 | 13 | 210 | 1.6 | 6.4 | 0.00 | 0.56 | 0.00 | 35 | 1021.6 |
| 20260507171533 | 13 | 223 | 3.2 | 9.7 | 0.00 | 0.56 | 0.00 | 41 | 1021.7 |
| 20260507171013 | 13 | 295 | 3.2 | 9.7 | 0.00 | 0.56 | 0.00 | 42 | 1021.8 |
| 20260507170513 | 12 | 317 | 3.2 | 8.0 | 0.00 | 0.56 | 0.00 | 36 | 1021.8 |
| 20260507170040 | 12 | 331 | 1.6 | 11.3 | 0.00 | 0.56 | 0.00 | 36 | 1021.8 |
| 20260507165514 | 12 | 298 | 3.2 | 11.3 | 0.00 | 0.56 | 0.00 | 36 | 1021.8 |
| 20260507165012 | 12 | 269 | 3.2 | 8.0 | 0.00 | 0.56 | 0.00 | 37 | 1021.8 |
| 20260507164527 | 12 | 327 | 4.8 | 9.7 | 0.00 | 0.56 | 0.00 | 36 | 1021.9 |
| 20260507164015 | 12 | 327 | 4.8 | 8.0 | 0.00 | 0.56 | 0.00 | 34 | 1021.9 |
| 20260507163512 | 12 | 313 | 3.2 | 8.0 | 0.00 | 0.56 | 0.00 | 36 | 1021.9 |
| 20260507163027 | 12 | 302 | 1.6 | 8.0 | 0.00 | 0.56 | 0.00 | 44 | 1021.9 |
| 20260507162512 | 12 | 292 | 1.6 | 9.7 | 0.00 | 0.56 | 0.00 | 37 | 1021.9 |
| 20260507162012 | 12 | 271 | 1.6 | 9.7 | 0.00 | 0.56 | 0.00 | 35 | 1021.8 |
| 20260507161532 | 12 | 5 | 3.2 | 8.0 | 0.00 | 0.56 | 0.00 | 39 | 1021.9 |
| 20260507161013 | 11 | 303 | 3.2 | 12.9 | 0.00 | 0.56 | 0.00 | 47 | 1021.7 |
| 20260507160513 | 11 | 341 | 1.6 | 9.7 | 0.00 | 0.56 | 0.00 | 44 | 1021.9 |
| 20260507160032 | 11 | 239 | 3.2 | 11.3 | 0.00 | 0.56 | 0.00 | 43 | 1021.8 |
| 20260507155512 | 10 | 280 | 3.2 | 11.3 | 0.00 | 0.56 | 0.00 | 42 | 1021.9 |
| 20260507155010 | 10 | 320 | 1.6 | 11.3 | 0.00 | 0.56 | 0.00 | 47 | 1021.8 |
| 20260507154532 | 10 | 334 | 1.6 | 8.0 | 0.00 | 0.56 | 0.00 | 44 | 1021.9 |
| 20260507154014 | 10 | 201 | 1.6 | 16.1 | 0.00 | 0.56 | 0.00 | 47 | 1021.9 |
| 20260507153512 | 10 | 267 | 4.8 | 16.1 | 0.00 | 0.56 | 0.00 | 48 | 1021.9 |
| 20260507153029 | 9 | 236 | 0.0 | 11.3 | 0.00 | 0.56 | 0.00 | 50 | 1021.8 |
| 20260507152518 | 9 | 249 | 3.2 | 11.3 | 0.00 | 0.56 | 0.00 | 48 | 1022.0 |
| 20260507152015 | 8 | 252 | 3.2 | 11.3 | 0.00 | 0.56 | 0.00 | 54 | 1021.8 |
| 20260507151531 | 8 | 269 | 1.6 | 11.3 | 0.00 | 0.56 | 0.00 | 53 | 1021.8 |
| 20260507151012 | 8 | 273 | 3.2 | 12.9 | 0.00 | 0.56 | 0.00 | 54 | 1021.8 |
| 20260507150513 | 7 | 5 | 3.2 | 12.9 | 0.00 | 0.56 | 0.00 | 54 | 1021.8 |
| 20260507150041 | 7 | 196 | 1.6 | 12.9 | 0.00 | 0.56 | 0.00 | 58 | 1021.9 |
| 20260507145512 | 7 | 302 | 4.8 | 12.9 | 0.00 | 0.56 | 0.00 | 55 | 1021.8 |
| 20260507145013 | 7 | 240 | 3.2 | 14.5 | 0.00 | 0.56 | 0.00 | 57 | 1021.8 |
| 20260507144530 | 7 | 314 | 4.8 | 14.5 | 0.00 | 0.56 | 0.00 | 57 | 1022.0 |
| 20260507144013 | 7 | 333 | 4.8 | 12.9 | 0.00 | 0.56 | 0.00 | 56 | 1022.0 |
| 20260507143511 | 6 | 255 | 3.2 | 14.5 | 0.00 | 0.56 | 0.00 | 58 | 1022.0 |
| 20260507143034 | 6 | 337 | 1.6 | 14.5 | 0.00 | 0.56 | 0.00 | 59 | 1021.9 |
| 20260507142512 | 6 | 232 | 3.2 | 16.1 | 0.00 | 0.56 | 0.00 | 58 | 1021.8 |
| 20260507142013 | 6 | 268 | 1.6 | 14.5 | 0.00 | 0.56 | 0.00 | 59 | 1021.8 |
| 20260507141533 | 6 | 274 | 3.2 | 14.5 | 0.00 | 0.56 | 0.00 | 59 | 1022.0 |
| 20260507141014 | 5 | 281 | 4.8 | 14.5 | 0.00 | 0.56 | 0.00 | 58 | 1022.0 |
| 20260507140514 | 5 | 307 | 0.0 | 9.7 | 0.00 | 0.56 | 0.00 | 62 | 1021.8 |
| 20260507140032 | 5 | 208 | 1.6 | 9.7 | 0.00 | 0.56 | 0.00 | 60 | 1021.9 |
| 20260507135517 | 5 | 348 | 1.6 | 6.4 | 0.00 | 0.56 | 0.00 | 58 | 1021.8 |
| 20260507135017 | 5 | 284 | 0.0 | 6.4 | 0.00 | 0.56 | 0.00 | 59 | 1021.6 |
| 20260507134531 | 4 | 269 | 0.0 | 6.4 | 0.00 | 0.56 | 0.00 | 59 | 1021.8 |
| 20260507134015 | 3 | 271 | 0.0 | 11.3 | 0.00 | 0.56 | 0.00 | 61 | 1021.6 |
| 20260507133512 | 3 | 322 | 0.0 | 11.3 | 0.00 | 0.56 | 0.00 | 62 | 1021.8 |
| 20260507133030 | 3 | 287 | 0.0 | 6.4 | 0.00 | 0.56 | 0.00 | 61 | 1021.6 |
| 20260507132514 | 2 | 292 | 0.0 | 3.2 | 0.00 | 0.56 | 0.00 | 63 | 1021.8 |
| 20260507132011 | 2 | 292 | 0.0 | 3.2 | 0.00 | 0.56 | 0.00 | 63 | 1021.8 |
| 20260507131536 | 1 | 285 | 0.0 | 3.2 | 0.00 | 0.56 | 0.00 | 67 | 1021.8 |
| 20260507131011 | 1 | 285 | 0.0 | 4.8 | 0.00 | 0.56 | 0.00 | 68 | 1021.8 |
| 20260507130515 | 0 | 283 | 0.0 | 4.8 | 0.00 | 0.56 | 0.00 | 70 | 1021.9 |
| 20260507130031 | 0 | 290 | 0.0 | 3.2 | 0.00 | 0.56 | 0.00 | 70 | 1021.9 |
| 20260507125512 | 0 | 304 | 0.0 | 3.2 | 0.00 | 0.56 | 0.00 | 72 | 1021.8 |
| 20260507125014 | 0 | 304 | 0.0 | 3.2 | 0.00 | 0.56 | 0.00 | 71 | 1021.6 |
| 20260507124531 | 0 | 304 | 0.0 | 1.6 | 0.00 | 0.56 | 0.00 | 73 | 1021.6 |
| 20260507124016 | -1 | 190 | 0.0 | 6.4 | 0.00 | 0.56 | 0.00 | 74 | 1021.5 |
| 20260507123511 | -1 | 284 | 0.0 | 6.4 | 0.00 | 0.56 | 0.00 | 74 | 1021.5 |
| 20260507123035 | -1 | 283 | 0.0 | 6.4 | 0.00 | 0.56 | 0.00 | 75 | 1021.4 |
| 20260507122511 | -2 | 283 | 0.0 | 6.4 | 0.00 | 0.56 | 0.00 | 75 | 1021.5 |
| 20260507122014 | -2 | 286 | 0.0 | 3.2 | 0.00 | 0.56 | 0.00 | 77 | 1021.3 |
| 20260507121535 | -2 | 294 | 0.0 | 0.0 | 0.00 | 0.56 | 0.00 | 78 | 1021.5 |
| 20260507121013 | -2 | 294 | 0.0 | 0.0 | 0.00 | 0.56 | 0.00 | 78 | 1021.3 |
| 20260507120514 | -2 | 294 | 0.0 | 0.0 | 0.00 | 0.56 | 0.00 | 76 | 1021.3 |
| 20260507120041 | -1 | 294 | 0.0 | 1.6 | 0.00 | 0.56 | 0.00 | 76 | 1021.3 |
| 20260507115514 | -1 | 294 | 0.0 | 1.6 | 0.00 | 0.56 | 0.00 | 75 | 1021.3 |
| 20260507115012 | -1 | 294 | 0.0 | 1.6 | 0.00 | 0.56 | 0.00 | 75 | 1021.4 |
| 20260507114532 | -1 | 294 | 0.0 | 3.2 | 0.00 | 0.56 | 0.00 | 76 | 1021.4 |
| 20260507114013 | -1 | 294 | 0.0 | 3.2 | 0.00 | 0.56 | 0.00 | 75 | 1021.5 |
| 20260507113513 | -2 | 294 | 0.0 | 4.8 | 0.00 | 0.56 | 0.00 | 75 | 1021.3 |
| 20260507113034 | -2 | 294 | 0.0 | 4.8 | 0.00 | 0.56 | 0.00 | 75 | 1021.4 |
| 20260507112513 | -2 | 151 | 0.0 | 0.0 | 0.00 | 0.56 | 0.00 | 77 | 1021.3 |
| 20260507112014 | -2 | 151 | 0.0 | 1.6 | 0.00 | 0.56 | 0.00 | 77 | 1021.3 |
| 20260507111535 | -2 | 151 | 0.0 | 1.6 | 0.00 | 0.56 | 0.00 | 78 | 1021.4 |
| 20260507111013 | -2 | 151 | 0.0 | 0.0 | 0.00 | 0.56 | 0.00 | 79 | 1021.4 |
| 20260507110512 | -2 | 151 | 0.0 | 0.0 | 0.00 | 0.56 | 0.00 | 79 | 1021.4 |
| 20260507110036 | -2 | 151 | 0.0 | 0.0 | 0.00 | 0.56 | 0.00 | 80 | 1021.3 |
| 20260507105515 | -2 | 151 | 0.0 | 0.0 | 0.00 | 0.56 | 0.00 | 80 | 1021.3 |
| 20260507105012 | -2 | 151 | 0.0 | 0.0 | 0.00 | 0.56 | 0.00 | 80 | 1021.3 |
| 20260507104536 | -2 | 151 | 0.0 | 1.6 | 0.00 | 0.56 | 0.00 | 80 | 1021.2 |
| 20260507104014 | -2 | 151 | 0.0 | 1.6 | 0.00 | 0.56 | 0.00 | 82 | 1021.3 |
| 20260507103515 | -3 | 151 | 0.0 | 3.2 | 0.00 | 0.56 | 0.00 | 84 | 1021.1 |
| 20260507103034 | -3 | 151 | 0.0 | 3.2 | 0.00 | 0.56 | 0.00 | 86 | 1021.3 |
| 20260507102517 | -3 | 151 | 0.0 | 1.6 | 0.00 | 0.56 | 0.00 | 87 | 1021.4 |
| 20260507102014 | -3 | 151 | 0.0 | 0.0 | 0.00 | 0.56 | 0.00 | 88 | 1021.5 |
| 20260507101538 | -4 | 151 | 0.0 | 0.0 | 0.00 | 0.56 | 0.00 | 88 | 1021.6 |
| 20260507101011 | -4 | 151 | 0.0 | 0.0 | 0.00 | 0.56 | 0.00 | 89 | 1021.7 |
| 20260507100511 | -4 | 151 | 0.0 | 0.0 | 0.00 | 0.56 | 0.00 | 89 | 1021.7 |
| 20260507100040 | -4 | 151 | 0.0 | 0.0 | 0.00 | 0.56 | 0.00 | 89 | 1021.7 |
| 20260507095515 | -4 | 151 | 0.0 | 0.0 | 0.00 | 0.56 | 0.00 | 89 | 1021.7 |
| 20260507095013 | -4 | 151 | 0.0 | 3.2 | 0.00 | 0.56 | 0.00 | 90 | 1021.6 |
| 20260507094533 | -4 | 151 | 0.0 | 3.2 | 0.00 | 0.56 | 0.00 | 90 | 1021.6 |
| 20260507094012 | -4 | 151 | 0.0 | 0.0 | 0.00 | 0.56 | 0.00 | 90 | 1021.4 |
| 20260507093512 | -4 | 151 | 0.0 | 0.0 | 0.00 | 0.56 | 0.00 | 90 | 1021.5 |
| 20260507093035 | -4 | 151 | 0.0 | 0.0 | 0.00 | 0.56 | 0.00 | 91 | 1021.6 |
| 20260507092515 | -4 | 151 | 0.0 | 1.6 | 0.00 | 0.56 | 0.00 | 91 | 1021.5 |
| 20260507092012 | -4 | 151 | 0.0 | 1.6 | 0.00 | 0.56 | 0.00 | 91 | 1021.6 |
| 20260507091534 | -4 | 151 | 0.0 | 0.0 | 0.00 | 0.56 | 0.00 | 91 | 1021.7 |
| 20260507091014 | -4 | 151 | 0.0 | 3.2 | 0.00 | 0.56 | 0.00 | 92 | 1021.8 |
| 20260507090515 | -4 | 151 | 0.0 | 3.2 | 0.00 | 0.56 | 0.00 | 92 | 1021.8 |
| 20260507090036 | -4 | 151 | 0.0 | 3.2 | 0.00 | 0.56 | 0.00 | 92 | 1021.8 |
| 20260507085511 | -4 | 151 | 0.0 | 0.0 | 0.00 | 0.56 | 0.00 | 92 | 1021.9 |
| 20260507085012 | -4 | 151 | 0.0 | 0.0 | 0.00 | 0.56 | 0.00 | 92 | 1021.9 |
| 20260507084534 | -4 | 151 | 0.0 | 0.0 | 0.00 | 0.56 | 0.00 | 93 | 1022.0 |
| 20260507084012 | -4 | 151 | 0.0 | 3.2 | 0.00 | 0.56 | 0.00 | 93 | 1021.8 |
| 20260507083514 | -4 | 151 | 0.0 | 3.2 | 0.00 | 0.56 | 0.00 | 93 | 1022.0 |
| 20260507083030 | -5 | 151 | 0.0 | 1.6 | 0.00 | 0.56 | 0.00 | 93 | 1021.9 |
| 20260507082514 | -5 | 151 | 0.0 | 1.6 | 0.00 | 0.56 | 0.00 | 92 | 1022.1 |
| 20260507082016 | -5 | 151 | 0.0 | 0.0 | 0.00 | 0.56 | 0.00 | 93 | 1022.0 |
| 20260507081543 | -5 | 151 | 0.0 | 0.0 | 0.00 | 0.56 | 0.00 | 93 | 1022.1 |
| 20260507081015 | -5 | 151 | 0.0 | 0.0 | 0.00 | 0.56 | 0.00 | 93 | 1022.2 |
| 20260507080516 | -4 | 151 | 0.0 | 0.0 | 0.00 | 0.56 | 0.00 | 93 | 1022.3 |
| 20260507080034 | -4 | 151 | 0.0 | 0.0 | 0.00 | 0.56 | 0.00 | 93 | 1022.3 |
| 20260507075519 | -4 | 151 | 0.0 | 0.0 | 0.00 | 0.56 | 0.00 | 93 | 1022.2 |
| 20260507075011 | -5 | 151 | 0.0 | 0.0 | 0.00 | 0.56 | 0.00 | 93 | 1022.3 |
| 20260507074550 | -5 | 151 | 0.0 | 0.0 | 0.00 | 0.56 | 0.00 | 93 | 1022.1 |
| 20260507074014 | -5 | 151 | 0.0 | 0.0 | 0.00 | 0.56 | 0.00 | 93 | 1022.3 |
| 20260507073516 | -5 | 151 | 0.0 | 0.0 | 0.00 | 0.56 | 0.00 | 93 | 1022.4 |
| 20260507073031 | -5 | 151 | 0.0 | 1.6 | 0.00 | 0.56 | 0.00 | 92 | 1022.3 |
| 20260507072518 | -5 | 151 | 0.0 | 1.6 | 0.00 | 0.56 | 0.00 | 92 | 1022.3 |
| 20260507072012 | -5 | 151 | 0.0 | 0.0 | 0.00 | 0.56 | 0.00 | 92 | 1022.3 |
| 20260507071534 | -5 | 151 | 0.0 | 1.6 | 0.00 | 0.56 | 0.00 | 92 | 1022.3 |
| 20260507071014 | -5 | 151 | 0.0 | 1.6 | 0.00 | 0.56 | 0.00 | 92 | 1022.3 |
| 20260507070519 | -4 | 151 | 0.0 | 0.0 | 0.00 | 0.56 | 0.00 | 92 | 1022.4 |
| 20260507070035 | -4 | 151 | 0.0 | 0.0 | 0.00 | 0.56 | 0.00 | 92 | 1022.4 |
| 20260507065512 | -4 | 151 | 0.0 | 0.0 | 0.00 | 0.56 | 0.00 | 92 | 1022.3 |
| 20260507065011 | -4 | 151 | 0.0 | 0.0 | 0.00 | 0.56 | 0.00 | 92 | 1022.2 |
| 20260507064531 | -4 | 151 | 0.0 | 0.0 | 0.00 | 0.56 | 0.00 | 92 | 1022.3 |
| 20260507064013 | -4 | 151 | 0.0 | 0.0 | 0.00 | 0.56 | 0.00 | 92 | 1022.3 |
| 20260507063515 | -3 | 151 | 0.0 | 0.0 | 0.00 | 0.56 | 0.00 | 92 | 1022.3 |
| 20260507063032 | -3 | 151 | 0.0 | 1.6 | 0.00 | 0.56 | 0.00 | 92 | 1022.2 |
| 20260507062514 | -3 | 151 | 0.0 | 1.6 | 0.00 | 0.56 | 0.00 | 92 | 1022.1 |
| 20260507062014 | -3 | 151 | 0.0 | 0.0 | 0.00 | 0.56 | 0.00 | 92 | 1022.2 |
| 20260507061536 | -3 | 151 | 0.0 | 0.0 | 0.00 | 0.56 | 0.00 | 92 | 1022.1 |
| 20260507061012 | -3 | 151 | 0.0 | 0.0 | 0.00 | 0.56 | 0.00 | 92 | 1022.1 |
| 20260507060512 | -3 | 151 | 0.0 | 0.0 | 0.00 | 0.56 | 0.00 | 92 | 1022.2 |
| 20260507060036 | -2 | 151 | 0.0 | 0.0 | 0.00 | 0.56 | 0.00 | 93 | 1022.2 |
| 20260507055513 | -2 | 151 | 0.0 | 0.0 | 0.00 | 0.56 | 0.56 | 93 | 1022.0 |
| 20260507055014 | -2 | 151 | 0.0 | 0.0 | 0.00 | 0.56 | 0.56 | 93 | 1022.0 |
| 20260507054538 | -2 | 151 | 0.0 | 0.0 | 0.00 | 0.56 | 0.56 | 93 | 1021.9 |
| 20260507054012 | -2 | 151 | 0.0 | 0.0 | 0.00 | 0.56 | 0.56 | 93 | 1021.8 |
| 20260507053513 | -2 | 151 | 0.0 | 0.0 | 0.00 | 0.56 | 0.56 | 93 | 1021.9 |
| 20260507053035 | -2 | 151 | 0.0 | 0.0 | 0.00 | 0.56 | 0.56 | 93 | 1022.0 |
| 20260507052514 | -2 | 151 | 0.0 | 1.6 | 0.00 | 0.56 | 0.56 | 93 | 1021.9 |
| 20260507052014 | -2 | 151 | 0.0 | 3.2 | 0.00 | 0.56 | 0.56 | 93 | 1021.9 |
| 20260507051532 | -2 | 151 | 0.0 | 4.8 | 0.00 | 0.56 | 0.56 | 92 | 1021.9 |
| 20260507051022 | -2 | 148 | 1.6 | 4.8 | 0.00 | 0.56 | 0.56 | 92 | 1021.7 |
| 20260507050513 | -2 | 138 | 0.0 | 4.8 | 0.00 | 0.56 | 0.56 | 93 | 1021.8 |